Vorticity
9 -6 12 9 4 5 8 1 6 12 0 10 11 19 8 6 -6 5 9 14 13 -3 -1 0 -2 -0 3 9 0 2 6 3 4 5 7 11 9 10 10 8 7 6 8 8
11 -12 10 9 7 1 5 6 4 20 6 10 21 31 4 5 7 1 16 21 4 -0 -1 1 -3 0 3 10 0 -8 0 2 10 13 8 7 11 10 11 11 8 8 8 8
18 -1 9 12 4 11 1 9 -1 12 2 29 4 23 -6 1 15 3 16 9 3 4 6 4 4 6 3 5 0 7 6 8 11 11 12 14 9 9 11 11 13 9 8 8
13 5 11 9 6 -1 24 -9 11 9 27 13 9 4 15 -4 8 13 12 6 5 6 6 10 8 -3 4 17 13 0 9 10 9 9 10 9 12 13 10 11 12 12 11 12
18 8 21 -7 -1 15 10 3 12 18 16 25 10 16 14 -4 1 18 4 6 5 1 2 8 -1 0 10 5 6 8 11 11 9 7 9 8 10 12 13 14 10 10 12 10
12 5 19 6 -4 8 -16 22 33 16 21 13 8 -3 22 16 8 5 4 -1 -9 -5 5 -1 2 -1 6 6 3 7 5 8 8 8 5 4 7 9 11 14 11 10 9 9
14 1 6 25 26 11 22 15 13 14 13 -2 5 22 3 1 15 -2 1 5 -16 -1 -2 -2 4 6 12 5 4 8 6 4 6 8 7 10 9 9 10 11 12 12 12 9
-3 9 -9 -2 18 -3 28 15 11 10 7 -5 10 20 17 16 6 5 9 -9 -7 -1 -8 7 0 10 3 5 11 4 8 13 12 13 14 10 10 11 13 13 11 13 13 8
33 -11 25 16 -13 26 -6 8 12 4 16 14 7 21 7 -4 2 0 5 -8 -11 -10 -8 5 8 0 8 13 7 11 10 8 10 10 11 11 12 11 12 15 12 13 12 9
-4 18 12 -19 8 12 7 13 3 15 7 15 20 18 -20 4 7 16 1 -12 11 -16 14 -1 14 3 13 8 9 5 5 6 8 9 11 13 12 13 14 15 13 13 13 8
15 9 -32 21 -6 13 12 22 19 6 6 8 4 20 -6 -3 38 4 -15 8 -15 14 3 14 -0 18 7 6 7 1 10 9 11 11 11 11 13 16 17 17 14 15 13 12
14 17 4 5 17 31 26 13 6 -4 14 -4 -12 -11 81 32 2 -9 5 -27 3 6 13 4 14 7 7 7 3 8 9 11 14 12 14 14 14 16 18 15 15 14 11 10
9 -10 14 9 31 -12 -14 -13 2 9 16 26 -19 -4 -4 -17 -27 -15 2 17 17 17 -11 14 9 9 6 4 7 8 12 13 13 14 15 14 14 16 16 14 10 11 11 11
19 7 1 -35 -31 -7 -3 5 11 7 8 -9 -39 -27 -18 20 17 18 15 4 10 -4 1 17 11 5 5 6 8 6 9 13 13 16 15 14 16 15 14 11 11 11 10 12
37 -4 16 -3 11 11 19 20 27 18 14 -9 -7 -7 18 23 28 17 2 9 -1 -13 20 12 8 7 5 5 10 6 10 13 13 15 16 15 16 13 12 11 10 10 11 13
14 8 -5 5 25 11 4 11 17 12 18 15 22 -9 41 13 10 -6 16 6 -15 24 11 11 7 2 4 7 6 8 3 7 17 14 17 16 13 12 11 10 10 10 11 13
18 4 5 2 16 2 54 48 28 -5 -9 5 15 8 -4 7 9 14 -7 -12 5 20 6 9 8 1 7 3 10 9 7 8 14 16 16 14 12 13 11 12 11 10 11 12
9 14 18 -5 52 27 15 -19 -17 -7 0 1 2 9 24 5 -2 -9 15 6 17 7 11 7 9 0 10 5 11 6 3 9 13 16 16 13 11 12 10 11 11 11 12 11
17 18 -0 8 10 -21 15 43 10 -20 -4 9 28 14 -3 -0 -24 4 13 14 -4 9 20 9 10 3 5 11 6 9 5 9 11 16 17 12 11 13 10 10 11 11 11 11
15 4 5 -1 5 -5 -15 -15 26 30 30 16 -0 6 11 -0 -4 4 19 7 3 30 7 1 9 7 5 8 8 6 9 9 9 13 16 11 13 12 10 10 11 11 11 12
15 26 2 19 -8 22 2 6 28 25 -3 -13 22 -36 8 -1 8 21 -6 4 13 9 8 9 14 7 11 5 8 5 7 4 6 9 12 13 16 12 11 10 12 12 11 13
11 8 -12 44 20 26 12 -23 28 -23 9 -17 10 14 24 23 -0 7 4 19 12 12 11 13 5 3 15 7 5 5 2 3 5 10 11 13 12 10 11 12 12 11 11 12
-3 -15 5 -5 -32 -42 -43 27 2 25 3 26 14 15 10 -10 8 19 7 18 11 19 14 11 10 6 8 10 8 7 6 5 5 10 11 12 11 9 11 13 13 11 13 16
18 9 34 13 -14 -2 14 14 26 8 9 7 19 -15 9 20 12 21 11 11 7 6 5 10 9 7 8 12 6 9 11 13 11 13 13 14 12 9 11 13 13 13 14 17
-12 -16 -20 -2 26 31 18 9 12 15 -6 12 17 27 15 20 15 16 14 11 7 7 15 12 11 10 12 11 9 13 15 14 13 14 13 14 13 8 13 13 14 13 16 15
20 42 28 -3 16 14 10 7 -4 1 25 14 7 22 6 -1 1 6 10 9 6 8 11 13 11 11 10 5 9 12 13 12 12 14 13 13 11 11 13 14 13 19 15 16
Height
3147 3147 3144 3142 3141 3140 3138 3136 3133 3130 3126 3121 3117 3116 3115 3114 3112 3111 3112 3112 3115 3115 3116 3114 3112 3110 3108 3104 3099 3094 3089 3083 3078 3073 3070 3066 3061 3056 3050 3044 3039 3034 3029 3023
3148 3145 3143 3141 3140 3138 3136 3134 3131 3127 3123 3118 3115 3113 3113 3112 3111 3110 3110 3110 3112 3113 3113 3110 3109 3107 3103 3098 3094 3089 3084 3079 3073 3067 3062 3057 3053 3049 3045 3039 3034 3029 3023 3018
3147 3146 3142 3140 3139 3137 3134 3131 3128 3124 3117 3114 3113 3111 3111 3109 3109 3109 3109 3109 3110 3110 3109 3107 3104 3101 3097 3092 3089 3084 3079 3073 3065 3057 3050 3045 3042 3040 3037 3034 3030 3024 3019 3013
3147 3144 3142 3139 3138 3135 3131 3128 3124 3119 3117 3115 3113 3112 3109 3108 3108 3109 3109 3109 3108 3106 3105 3103 3099 3094 3090 3087 3084 3079 3072 3065 3058 3051 3044 3038 3032 3028 3026 3024 3022 3018 3012 3007
3148 3143 3140 3138 3136 3132 3130 3125 3121 3116 3114 3113 3112 3112 3106 3107 3107 3107 3106 3104 3103 3102 3100 3098 3094 3088 3085 3080 3075 3070 3065 3059 3051 3045 3038 3031 3025 3020 3016 3014 3011 3008 3006 3001
3145 3142 3139 3137 3134 3130 3127 3122 3116 3113 3112 3112 3110 3112 3104 3104 3104 3102 3101 3099 3098 3097 3095 3092 3088 3083 3078 3074 3068 3061 3055 3049 3041 3034 3028 3022 3015 3010 3006 3003 3000 2998 2994 2992
3143 3141 3137 3134 3131 3128 3125 3121 3116 3116 3115 3114 3110 3110 3101 3100 3099 3097 3096 3095 3094 3091 3089 3086 3081 3076 3072 3066 3060 3053 3046 3041 3034 3027 3022 3016 3009 3002 2996 2992 2990 2989 2985 2982
3141 3138 3137 3133 3130 3128 3123 3123 3123 3127 3121 3112 3108 3102 3098 3096 3093 3093 3092 3092 3090 3088 3084 3080 3075 3069 3063 3058 3052 3046 3040 3034 3026 3018 3012 3008 3002 2994 2987 2982 2979 2978 2976 2973
3142 3137 3133 3130 3129 3127 3123 3122 3122 3119 3115 3113 3101 3097 3095 3092 3088 3088 3087 3087 3086 3083 3079 3074 3069 3064 3057 3051 3045 3039 3032 3025 3017 3010 3003 2998 2993 2985 2977 2972 2969 2966 2965 2963
3141 3134 3130 3128 3126 3123 3121 3121 3118 3116 3117 3114 3097 3093 3088 3087 3084 3085 3084 3083 3080 3077 3073 3068 3063 3057 3050 3044 3037 3032 3025 3017 3009 3001 2994 2987 2981 2974 2966 2961 2958 2956 2954 2953
3137 3135 3131 3125 3123 3119 3117 3116 3116 3116 3114 3111 3107 3089 3084 3083 3082 3082 3080 3077 3072 3068 3064 3059 3054 3048 3042 3036 3031 3026 3017 3010 3002 2993 2984 2977 2970 2963 2957 2951 2948 2946 2943 2942
3135 3130 3124 3121 3117 3115 3113 3113 3113 3113 3109 3105 3102 3077 3079 3078 3079 3080 3076 3070 3066 3062 3057 3051 3045 3039 3033 3028 3023 3015 3007 2999 2991 2983 2975 2967 2960 2954 2948 2943 2939 2936 2934 2932
3131 3125 3121 3117 3115 3113 3111 3110 3108 3106 3104 3094 3100 3077 3077 3075 3075 3074 3068 3063 3059 3055 3049 3042 3037 3031 3025 3019 3012 3005 2998 2988 2980 2972 2966 2958 2950 2944 2939 2934 2930 2928 2924 2922
3124 3119 3120 3116 3110 3109 3105 3102 3100 3099 3096 3083 3075 3067 3072 3071 3067 3064 3059 3057 3052 3046 3040 3034 3029 3023 3016 3009 3002 2995 2987 2978 2970 2963 2955 2947 2941 2935 2930 2925 2921 2918 2915 2912
3118 3110 3107 3106 3101 3098 3092 3087 3085 3081 3080 3077 3057 3063 3060 3062 3058 3053 3050 3047 3041 3037 3032 3025 3019 3013 3007 3000 2993 2985 2978 2970 2961 2953 2945 2937 2931 2926 2922 2916 2912 2908 2906 2903
3112 3102 3097 3091 3093 3087 3077 3074 3071 3067 3067 3062 3059 3049 3056 3052 3048 3046 3044 3038 3033 3028 3021 3016 3009 3003 2998 2990 2982 2976 2970 2961 2952 2944 2935 2928 2921 2917 2912 2907 2902 2898 2894 2891
3105 3101 3095 3083 3084 3079 3070 3057 3057 3058 3057 3056 3051 3049 3047 3044 3041 3039 3036 3032 3024 3017 3011 3005 3000 2995 2988 2981 2974 2969 2960 2951 2944 2934 2926 2919 2912 2907 2902 2898 2893 2888 2883 2879
3094 3093 3090 3079 3079 3074 3057 3056 3055 3051 3050 3050 3046 3044 3040 3037 3033 3032 3029 3021 3014 3008 3002 2997 2990 2985 2980 2973 2966 2959 2950 2941 2933 2925 2917 2910 2903 2898 2892 2887 2882 2877 2871 2867
3085 3086 3084 3080 3070 3056 3054 3051 3049 3045 3039 3042 3037 3036 3033 3029 3022 3020 3017 3011 3005 2999 2993 2986 2980 2975 2969 2962 2955 2948 2940 2931 2922 2915 2908 2901 2893 2887 2881 2875 2870 2866 2859 2856
3079 3078 3080 3075 3071 3058 3045 3045 3043 3038 3030 3030 3030 3028 3024 3021 3011 3008 3004 3000 2995 2989 2983 2975 2970 2964 2957 2951 2943 2937 2929 2921 2913 2905 2898 2892 2883 2875 2870 2863 2859 2854 2848 2843
3072 3070 3068 3064 3061 3044 3042 3039 3036 3036 3032 3023 3022 3019 3013 3009 3004 2997 2993 2989 2984 2979 2972 2965 2959 2953 2945 2938 2931 2925 2917 2909 2902 2896 2888 2880 2873 2865 2860 2852 2847 2841 2836 2831
3064 3064 3060 3055 3053 3040 3036 3035 3034 3027 3021 3016 3011 3008 3002 2998 2995 2989 2985 2979 2974 2969 2963 2957 2949 2944 2937 2927 2918 2913 2905 2897 2890 2883 2876 2868 2861 2855 2848 2840 2835 2829 2823 2817
3054 3057 3052 3046 3034 3033 3029 3028 3021 3017 3011 3007 3003 2999 2993 2988 2983 2979 2974 2969 2963 2957 2952 2946 2937 2930 2926 2915 2904 2898 2892 2884 2877 2871 2864 2856 2849 2843 2836 2828 2822 2815 2812 2805
3043 3045 3034 3032 3029 3029 3024 3019 3011 3007 3005 3001 2995 2989 2984 2979 2975 2969 2964 2958 2952 2946 2939 2932 2924 2916 2910 2903 2892 2883 2876 2869 2862 2857 2850 2844 2836 2829 2824 2817 2810 2803 2798 2793
3036 3034 3027 3019 3019 3017 3013 3008 3005 3002 2997 2992 2987 2982 2977 2971 2966 2960 2953 2947 2940 2933 2926 2918 2909 2901 2895 2887 2879 2870 2862 2855 2849 2843 2836 2831 2824 2816 2810 2805 2800 2792 2786 2780
3022 3020 3019 3009 3011 3006 3000 2997 2994 2991 2986 2981 2976 2972 2970 2964 2957 2950 2942 2935 2926 2919 2913 2903 2895 2885 2880 2872 2865 2858 2849 2842 2837 2830 2824 2818 2812 2804 2798 2791 2785 2786 2774 2770